This is the latest recevied weather packets stored in our database for station/object WA4IKQ. If no packets are shown the sender has not sent any weather packets the latest 10 day(s).
| Time | Temp. | Humidity | Pressure | Rain* | Wind** | Luminosity | Snow |
|---|---|---|---|---|---|---|---|
| 1778107859 | 32.22° C | 42% | 1014.7 hPa | 0 mm | 1.79 m/s, 359° | - | - |
| 1778107680 | 32.78° C | 41% | 1014.7 hPa | 0 mm | 3.13 m/s, 89° | - | - |
| 1778107290 | 33.33° C | 40% | 1014.8 hPa | 0 mm | 3.58 m/s, 90° | - | - |
| 1778107259 | 33.33° C | 40% | 1014.8 hPa | 0 mm | 3.58 m/s, 90° | - | - |
| 1778107010 | 33.33° C | 36% | 1014.8 hPa | 0 mm | 2.68 m/s, 174° | - | - |
| 1778106973 | 33.33° C | 36% | 1014.8 hPa | 0 mm | 2.68 m/s, 174° | - | - |
| 1778106690 | 33.33° C | 35% | 1014.8 hPa | 0 mm | 0.89 m/s, 83° | - | - |
| 1778106655 | 33.33° C | 35% | 1014.8 hPa | 0 mm | 0.89 m/s, 83° | - | - |
| 1778106431 | 33.33° C | 34% | 1014.8 hPa | 0 mm | 0.89 m/s, 155° | - | - |
| 1778106155 | 33.33° C | 34% | 1014.9 hPa | 0 mm | 1.34 m/s, 270° | - | - |
| 1778106113 | 33.33° C | 34% | 1014.9 hPa | 0 mm | 1.34 m/s, 270° | - | - |
| 1778106062 | 33.33° C | 34% | 1014.9 hPa | 0 mm | 1.34 m/s, 270° | - | - |
| 1778105798 | 33.33° C | 34% | 1014.9 hPa | 0 mm | 1.34 m/s, 197° | - | - |
| 1778105584 | 33.33° C | 34% | 1014.8 hPa | 0 mm | 2.24 m/s, 172° | - | - |
| 1778104936 | 33.33° C | 34% | 1014.7 hPa | 0 mm | 1.79 m/s, 187° | - | - |
| 1778104897 | 33.33° C | 34% | 1014.7 hPa | 0 mm | 1.79 m/s, 187° | - | - |
| 1778104864 | 33.33° C | 34% | 1014.7 hPa | 0 mm | 1.79 m/s, 187° | - | - |
| 1778104328 | 33.89° C | 33% | 1014.8 hPa | 0 mm | 3.13 m/s, 211° | - | - |
| 1778104255 | 33.89° C | 33% | 1014.8 hPa | 0 mm | 3.13 m/s, 211° | - | - |
| 1778104072 | 33.89° C | 33% | 1014.8 hPa | 0 mm | 1.79 m/s, 156° | - | - |
| 1778103961 | 33.89° C | 33% | 1014.8 hPa | 0 mm | 1.79 m/s, 156° | - | - |
| 1778103797 | 33.89° C | 34% | 1014.8 hPa | 0 mm | 1.34 m/s, 195° | - | - |
| 1778103464 | 33.89° C | 34% | 1014.9 hPa | 0 mm | 0.89 m/s, 243° | - | - |
| 1778103171 | 33.89° C | 33% | 1014.9 hPa | 0 mm | 0 m/s | - | - |
| 1778103136 | 33.89° C | 33% | 1014.9 hPa | 0 mm | 0 m/s | - | - |
* Rain latest hour (hover to see other rain measurements)
** Current wind speed in m/s (hover to see current wind gust speed)